Simultaneous Nadir Overpasses (SNOs) Predictions

Prediction of SNOs between GOES-16 and AQUA Satellite Orbit:

Table of predicted SNOs for the next 14.0 days since TLE Epoch: 2/25/2017
Index Date Time (GOES-16) GOES-16 Lat,Lon AQUA Lat,Lon Distance(km) Time Diff (sec)
1 02/25/2017 07:52:19 -0.03, -89.48 0.89, -93.71 481.05 80
2 02/26/2017 19:18:53 0.03, -89.50 0.83, -85.60 442.75 80
3 02/27/2017 07:40:09 -0.02, -89.49 0.23, -90.76 144.25 80
4 03/01/2017 07:25:18 -0.02, -89.49 -0.37, -87.80 192.64 80
5 03/01/2017 19:46:43 0.02, -89.50 -0.71, -92.99 396.79 80
6 03/03/2017 19:34:32 0.02, -89.51 -0.10, -90.03 59.71 80
7 03/05/2017 19:25:01 0.02, -89.52 0.52, -87.07 277.60 80
8 03/06/2017 07:46:17 -0.01, -89.51 0.54, -92.23 308.65 80
9 03/08/2017 07:31:26 0.00, -89.52 -0.08, -89.27 29.32 80
10 03/10/2017 07:19:15 0.00, -89.54 -0.71, -86.31 367.41 80
11 03/10/2017 19:40:39 -0.00, -89.55 -0.42, -91.50 222.09 80




NCC Satellite Simultaneous Nadir Overpasses (SNOs) Prediction Service
